[[{"header":{"parameterUnit":"m.s-1","parameterCategory":2,"la1":30.2992,"la2":30.254,"lo1":-89.0895,"lo2":-89.0443,"dy":0.0025,"dx":0.0025,"nx":19,"ny":19,"refTime":"2026-03-23T03:00:00:Z","depth":"0","parameterNumber":2,"parameterNumberName":"U-component_of_CURRENTS"},"data":[0,0,0,-0.1638,-0.164,-0.1709,-0.1709,-0.1686,-0.1685,0,0,0,0,0,0,0,0,0,0,0,-0.1582,-0.1582,-0.1638,-0.164,-0.1709,-0.1709,-0.1686,-0.1685,0,0,0,0,0,0,0,0,0,0,0,-0.1582,-0.1582,-0.1582,-0.164,-0.1709,-0.1709,-0.1686,-0.1659,0,0,0,0,0,0,0,0,0,0,-0.1604,-0.1588,-0.1582,-0.1582,-0.1641,-0.1709,-0.1709,-0.1658,-0.166,-0.1627,0,-0.1625,0,-0.1671,-0.1682,-0.1682,0,0,0,-0.1628,-0.1586,-0.1598,-0.1582,-0.1642,-0.1709,-0.1674,-0.166,-0.1662,-0.1628,-0.1625,-0.1626,-0.1671,-0.1682,-0.1682,-0.1697,-0.1697,0,0,-0.1624,-0.1603,-0.1596,-0.1599,-0.1641,-0.1672,-0.1677,-0.1663,-0.1658,-0.1625,-0.1627,-0.1671,-0.1682,-0.1682,-0.1697,-0.1697,0,0,0,-0.1621,-0.16,-0.1614,-0.1597,-0.1629,-0.1674,-0.168,-0.1658,-0.1661,-0.1627,-0.167,-0.1682,-0.1681,-0.1696,-0.1697,-0.1626,0,0,0,-0.1618,-0.16,-0.1612,-0.1602,-0.1629,-0.1666,-0.1675,-0.166,-0.1662,-0.167,-0.1682,-0.1681,-0.1695,-0.1696,-0.1627,-0.1581,0,0,0,-0.1582,-0.1598,-0.1598,-0.16,-0.164,-0.1667,-0.167,-0.1662,-0.1689,-0.1682,-0.1681,-0.1695,-0.1696,-0.1627,-0.1583,-0.1527,0,0,0,-0.157,-0.1534,-0.1597,-0.1581,-0.1639,-0.1664,-0.1671,-0.168,-0.1672,-0.1681,-0.1695,-0.1697,-0.1627,-0.1584,-0.1529,-0.1442,-0.1425,0,0,-0.1511,-0.1527,-0.152,-0.1578,-0.1587,-0.1654,-0.1662,-0.1651,-0.1683,-0.1688,-0.169,-0.1626,-0.1583,-0.1527,-0.1511,-0.1491,0,0,0,-0.1493,-0.1486,-0.1502,-0.1528,-0.1572,-0.1608,-0.164,-0.1657,-0.1671,-0.1691,-0.1671,-0.1646,-0.1612,-0.1567,-0.1552,-0.1433,-0.1702,-0.1702,-0.1702,-0.1384,-0.1425,-0.1426,-0.1481,-0.1505,-0.1567,-0.1582,-0.1618,-0.1647,-0.1661,-0.1622,-0.1576,-0.1531,-0.1518,-0.1398,-0.1669,-0.1669,-0.1669,-0.1669,-0.133,-0.1335,-0.1391,-0.1407,-0.1453,-0.1467,-0.152,-0.1542,-0.1551,-0.1609,-0.1578,-0.1537,-0.1497,-0.1376,-0.1665,-0.1666,-0.1666,-0.1666,-0.1667,-0.1289,-0.129,-0.1321,-0.1345,-0.1354,-0.1407,-0.1381,-0.143,-0.1477,-0.1456,-0.1406,-0.1406,-0.1266,-0.1438,-0.1438,-0.1437,-0.1437,-0.1437,-0.1436,-0.1228,-0.1256,-0.1248,-0.1281,-0.1273,-0.1269,-0.1296,-0.1294,-0.1293,-0.1319,-0.1318,-0.124,-0.1505,-0.1476,-0.143,-0.1431,-0.1432,-0.1432,-0.1433,-0.1149,-0.1172,-0.1152,-0.1144,-0.1126,-0.1067,-0.1123,-0.1088,-0.1096,-0.107,-0.1014,-0.1246,-0.1251,-0.1264,-0.1231,-0.1123,-0.1123,-0.1123,-0.1123,-0.1079,-0.1097,-0.1051,-0.101,-0.0965,-0.0961,-0.0849,-0.0872,-0.0859,-0.0825,-0.082,-0.0843,-0.0861,-0.0846,-0.0868,-0.0829,-0.0622,-0.0621,-0.062,-0.101,-0.1017,-0.0948,-0.0937,-0.0882,-0.0825,-0.07,-0.0644,-0.0638,-0.0591,-0.0665,-0.0686,-0.0718,-0.0756,-0.074,-0.0781,-0.0722,0,0]},{"header":{"parameterUnit":"m.s-1","parameterCategory":2,"la1":30.2992,"la2":30.254,"lo1":-89.0895,"lo2":-89.0443,"dy":0.0025,"dx":0.0025,"nx":19,"ny":19,"refTime":"2026-03-23T03:00:00:Z","depth":"0","parameterNumber":3,"parameterNumberName":"V-component_of_CURRENTS"},"data":[0,0,0,-0.0714,-0.0713,-0.0675,-0.0675,-0.0626,-0.0626,0,0,0,0,0,0,0,0,0,0,0,-0.0728,-0.0728,-0.0714,-0.0713,-0.0675,-0.0675,-0.0626,-0.0626,0,0,0,0,0,0,0,0,0,0,0,-0.0728,-0.0728,-0.0727,-0.0713,-0.0675,-0.0675,-0.0626,-0.0655,0,0,0,0,0,0,0,0,0,0,-0.0692,-0.0703,-0.0728,-0.0727,-0.0712,-0.0675,-0.0675,-0.0656,-0.0653,-0.0643,0,-0.0637,0,-0.0629,-0.0622,-0.0622,0,0,0,-0.0713,-0.0706,-0.0697,-0.0727,-0.0712,-0.0675,-0.0692,-0.0655,-0.0651,-0.0639,-0.0636,-0.0634,-0.0628,-0.0622,-0.0622,-0.0696,-0.0697,0,0,-0.0715,-0.0719,-0.0699,-0.0695,-0.0701,-0.0693,-0.0691,-0.0652,-0.0648,-0.0636,-0.0633,-0.0627,-0.0622,-0.0621,-0.0695,-0.0696,0,0,0,-0.0721,-0.0721,-0.0713,-0.0697,-0.0689,-0.0692,-0.0689,-0.0649,-0.0647,-0.0633,-0.0627,-0.0621,-0.0621,-0.0693,-0.0695,-0.0802,0,0,0,-0.0722,-0.0724,-0.0714,-0.0716,-0.069,-0.0668,-0.0687,-0.065,-0.0645,-0.0627,-0.0621,-0.062,-0.0692,-0.0694,-0.0797,-0.081,0,0,0,-0.073,-0.0725,-0.0721,-0.0716,-0.0699,-0.0669,-0.0664,-0.0648,-0.0641,-0.0622,-0.062,-0.0691,-0.0694,-0.0791,-0.0802,-0.0834,0,0,0,-0.0736,-0.0752,-0.0721,-0.0736,-0.07,-0.0729,-0.0664,-0.067,-0.0662,-0.0621,-0.0692,-0.0695,-0.079,-0.0798,-0.083,-0.0864,-0.0886,0,0,-0.0768,-0.0756,-0.0768,-0.0739,-0.0768,-0.0734,-0.0786,-0.0736,-0.0704,-0.0701,-0.0703,-0.0798,-0.0802,-0.0833,-0.1026,-0.1043,0,0,0,-0.0786,-0.0788,-0.0792,-0.0794,-0.0804,-0.0827,-0.0797,-0.0811,-0.083,-0.0711,-0.0826,-0.0824,-0.084,-0.0854,-0.0868,-0.0543,-0.0708,-0.0708,-0.0708,-0.0818,-0.0822,-0.0843,-0.0852,-0.088,-0.0898,-0.0934,-0.095,-0.0905,-0.0957,-0.0933,-0.1056,-0.1077,-0.1086,-0.0753,-0.0976,-0.0976,-0.0977,-0.0977,-0.0855,-0.0865,-0.0877,-0.0901,-0.0935,-0.0983,-0.1054,-0.1058,-0.1123,-0.1078,-0.109,-0.0993,-0.1108,-0.0746,-0.0984,-0.0983,-0.0982,-0.0981,-0.0981,-0.0872,-0.088,-0.0887,-0.0929,-0.0981,-0.1023,-0.1102,-0.1146,-0.1188,-0.1228,-0.1195,-0.1193,-0.085,-0.1222,-0.1223,-0.1223,-0.1223,-0.1223,-0.1223,-0.0885,-0.0897,-0.0919,-0.0958,-0.0984,-0.1041,-0.1129,-0.1185,-0.1261,-0.1295,-0.1295,-0.0862,-0.1129,-0.109,-0.1227,-0.1227,-0.1226,-0.1226,-0.1226,-0.0899,-0.0913,-0.0941,-0.0963,-0.102,-0.1072,-0.1151,-0.1276,-0.1338,-0.1391,-0.0987,-0.1333,-0.1285,-0.1273,-0.1238,-0.1404,-0.1404,-0.1404,-0.1404,-0.0905,-0.0916,-0.0942,-0.0975,-0.1031,-0.1084,-0.1185,-0.1286,-0.1161,-0.1001,-0.0874,-0.079,-0.0797,-0.0712,-0.0712,-0.0661,-0.0678,-0.0676,-0.0675,-0.0903,-0.0912,-0.0923,-0.096,-0.1023,-0.1091,-0.1155,-0.118,-0.0896,-0.0605,-0.0408,-0.044,-0.0273,-0.031,-0.0143,-0.017,-0.0075,0,0]}],[{"header":{"parameterUnit":"m.s-1","parameterCategory":2,"la1":30.2992,"la2":30.254,"lo1":-89.0895,"lo2":-89.0443,"dy":0.0025,"dx":0.0025,"nx":19,"ny":19,"refTime":"2026-03-23T03:00:00:Z","depth":"2","parameterNumber":2,"parameterNumberName":"U-component_of_CURRENTS"},"data":[0,0,0,-0.2888,-0.2888,-0.288,-0.288,-0.283,-0.2829,0,0,0,0,0,0,0,0,0,0,0,-0.2877,-0.2876,-0.2888,-0.2888,-0.288,-0.288,-0.283,-0.2829,0,0,0,0,0,0,0,0,0,0,0,-0.2877,-0.2877,-0.2876,-0.2888,-0.288,-0.288,-0.283,-0.2848,0,0,0,0,0,0,0,0,0,0,-0.2861,-0.2854,-0.2877,-0.2876,-0.2888,-0.288,-0.288,-0.2849,-0.2847,-0.282,0,-0.2803,0,-0.2816,-0.2825,-0.2824,0,0,0,-0.2894,-0.2856,-0.2854,-0.2876,-0.2888,-0.288,-0.2885,-0.2848,-0.2845,-0.2817,-0.2802,-0.2801,-0.2816,-0.2824,-0.2824,-0.2619,-0.2617,0,0,-0.2895,-0.2878,-0.2856,-0.2852,-0.2863,-0.2886,-0.2885,-0.2847,-0.2832,-0.2802,-0.2801,-0.2815,-0.2824,-0.2823,-0.262,-0.2618,0,0,0,-0.2892,-0.2878,-0.2879,-0.2853,-0.2855,-0.2885,-0.2885,-0.2834,-0.2834,-0.28,-0.2814,-0.2823,-0.2822,-0.2622,-0.262,-0.2734,0,0,0,-0.2892,-0.2876,-0.2878,-0.2869,-0.2856,-0.2851,-0.2872,-0.2836,-0.2833,-0.2814,-0.2823,-0.2822,-0.2624,-0.2621,-0.2735,-0.2756,0,0,0,-0.2882,-0.2876,-0.2868,-0.2868,-0.2864,-0.2852,-0.285,-0.2836,-0.2841,-0.2824,-0.2821,-0.2625,-0.2621,-0.2736,-0.2756,-0.2707,0,0,0,-0.2876,-0.2862,-0.2867,-0.2867,-0.2864,-0.2872,-0.2851,-0.2854,-0.2843,-0.2823,-0.2624,-0.262,-0.2736,-0.2757,-0.2709,-0.2491,-0.2468,0,0,-0.2864,-0.286,-0.2868,-0.2873,-0.2876,-0.2875,-0.2821,-0.2796,-0.2757,-0.264,-0.2635,-0.2735,-0.2756,-0.2708,-0.2256,-0.2241,0,0,0,-0.2871,-0.2849,-0.2861,-0.2857,-0.2878,-0.2828,-0.2793,-0.2764,-0.2688,-0.2727,-0.2619,-0.2625,-0.2594,-0.246,-0.2446,-0.26,-0.2601,-0.2601,-0.2602,-0.2755,-0.2803,-0.2793,-0.2806,-0.2814,-0.2777,-0.2754,-0.267,-0.2656,-0.2608,-0.2636,-0.2556,-0.2411,-0.2399,-0.2551,-0.2552,-0.2552,-0.2552,-0.2553,-0.2673,-0.2642,-0.2713,-0.27,-0.2692,-0.2647,-0.2656,-0.265,-0.2586,-0.2582,-0.2547,-0.2482,-0.2391,-0.2559,-0.2558,-0.2557,-0.2557,-0.2556,-0.2556,-0.2539,-0.253,-0.253,-0.2541,-0.2542,-0.257,-0.2587,-0.2635,-0.2639,-0.2654,-0.2427,-0.2422,-0.266,-0.2625,-0.2625,-0.2625,-0.2625,-0.2625,-0.2625,-0.2358,-0.2382,-0.234,-0.2384,-0.241,-0.2468,-0.2552,-0.2543,-0.2491,-0.2465,-0.2462,-0.2578,-0.2576,-0.2655,-0.2623,-0.2623,-0.2623,-0.2623,-0.2624,-0.2138,-0.2167,-0.2144,-0.2148,-0.2227,-0.2208,-0.235,-0.2241,-0.224,-0.2147,-0.2325,-0.2333,-0.2257,-0.2262,-0.2327,-0.2212,-0.2212,-0.2212,-0.2212,-0.1973,-0.1998,-0.1938,-0.1959,-0.2006,-0.2073,-0.1891,-0.1849,-0.1901,-0.1934,-0.1947,-0.1909,-0.1929,-0.1835,-0.185,-0.1906,-0.1682,-0.1681,-0.1681,-0.1808,-0.1847,-0.1755,-0.1817,-0.1883,-0.1861,-0.1611,-0.1486,-0.1552,-0.1669,-0.1951,-0.2158,-0.2134,-0.2154,-0.2033,-0.2049,-0.2148,0,0]},{"header":{"parameterUnit":"m.s-1","parameterCategory":2,"la1":30.2992,"la2":30.254,"lo1":-89.0895,"lo2":-89.0443,"dy":0.0025,"dx":0.0025,"nx":19,"ny":19,"refTime":"2026-03-23T03:00:00:Z","depth":"2","parameterNumber":3,"parameterNumberName":"V-component_of_CURRENTS"},"data":[0,0,0,0.022,0.0221,0.0265,0.0265,0.0544,0.0547,0,0,0,0,0,0,0,0,0,0,0,0.0187,0.0186,0.022,0.0221,0.0265,0.0265,0.0543,0.0547,0,0,0,0,0,0,0,0,0,0,0,0.0187,0.0186,0.0186,0.0221,0.0265,0.0265,0.0543,0.0456,0,0,0,0,0,0,0,0,0,0,0.0387,0.0307,0.0186,0.0186,0.0221,0.0265,0.0265,0.045,0.0462,0.0585,0,0.0565,0,0.0575,0.057,0.0571,0,0,0,0.023,0.0296,0.0325,0.0186,0.0222,0.0265,0.0248,0.0455,0.0469,0.0602,0.0569,0.0579,0.0579,0.0572,0.0574,0.0684,0.0682,0,0,0.0227,0.0195,0.0314,0.0332,0.0206,0.0246,0.0249,0.0461,0.0461,0.057,0.0585,0.0584,0.0575,0.0577,0.0685,0.0683,0,0,0,0.0215,0.0193,0.021,0.0321,0.0318,0.0247,0.025,0.045,0.0459,0.0587,0.0587,0.0577,0.0581,0.0686,0.0684,0.0598,0,0,0,0.0214,0.0185,0.0208,0.019,0.0311,0.0352,0.0235,0.0443,0.0467,0.0586,0.0577,0.0584,0.0688,0.0685,0.0603,0.0539,0,0,0,0.0189,0.0183,0.0181,0.0188,0.0207,0.0348,0.0367,0.0447,0.047,0.0572,0.0585,0.0689,0.0686,0.0608,0.0548,0.0489,0,0,0,0.0167,0.0137,0.0179,0.0155,0.0206,0.0254,0.0365,0.0406,0.0475,0.0578,0.0688,0.0684,0.061,0.0553,0.0495,0.048,0.0453,0,0,0.012,0.013,0.012,0.016,0.0175,0.025,0.026,0.0383,0.047,0.0641,0.0642,0.0602,0.0549,0.049,0.0291,0.0271,0,0,0,0.0101,0.0085,0.0101,0.0114,0.0175,0.0204,0.0306,0.0353,0.0433,0.0495,0.0559,0.0527,0.0494,0.0495,0.0477,0.0669,0.0669,0.067,0.067,-0.0022,0.0024,0.0002,0.0055,0.0099,0.0174,0.0202,0.0277,0.039,0.0367,0.0426,0.0276,0.0273,0.026,0.0406,0.0405,0.0405,0.0405,0.0405,-0.0129,-0.0156,-0.0085,-0.0106,-0.0034,-0.0016,0.0126,0.0166,0.0213,0.0297,0.0271,0.0365,0.0237,0.0397,0.0398,0.0399,0.04,0.0401,0.0401,-0.0238,-0.0245,-0.0267,-0.0267,-0.0253,-0.0153,-0.0108,-0.0,0.0097,0.0088,0.0098,0.01,0.0242,0.0073,0.0072,0.0071,0.0071,0.0071,0.007,-0.0367,-0.0368,-0.0422,-0.0419,-0.0414,-0.0371,-0.0253,-0.0203,-0.0119,-0.0035,-0.0034,0.0164,0.0174,0.0221,0.0061,0.0063,0.0064,0.0065,0.0065,-0.0491,-0.0498,-0.0547,-0.0569,-0.0547,-0.0517,-0.0425,-0.0363,-0.0324,-0.0302,-0.0085,-0.0078,-0.0052,-0.0037,0.0002,-0.0204,-0.0204,-0.0204,-0.0204,-0.0575,-0.058,-0.0634,-0.0637,-0.0623,-0.0561,-0.0556,-0.0373,-0.022,-0.0017,-0.0024,0.0077,0.0081,0.0123,0.0134,0.0182,0.0022,0.0023,0.0024,-0.0645,-0.0643,-0.0678,-0.0674,-0.0647,-0.0612,-0.0592,-0.0197,0.0284,0.0045,0.0147,-0.0215,-0.0083,-0.007,-0.0013,0.0008,0.0082,0,0]}],[{"header":{"parameterUnit":"m.s-1","parameterCategory":2,"la1":30.2992,"la2":30.254,"lo1":-89.0895,"lo2":-89.0443,"dy":0.0025,"dx":0.0025,"nx":19,"ny":19,"refTime":"2026-03-23T03:00:00:Z","depth":"4","parameterNumber":2,"parameterNumberName":"U-component_of_CURRENTS"},"data":[0,0,0,-0.1256,-0.1258,-0.1408,-0.1409,-0.1554,-0.1554,0,0,0,0,0,0,0,0,0,0,0,-0.1207,-0.1208,-0.1256,-0.1259,-0.1408,-0.1409,-0.1553,-0.1554,0,0,0,0,0,0,0,0,0,0,0,-0.1207,-0.1208,-0.1209,-0.1259,-0.1408,-0.1409,-0.1553,-0.1457,0,0,0,0,0,0,0,0,0,0,-0.1319,-0.1278,-0.1208,-0.1209,-0.126,-0.1408,-0.1409,-0.1453,-0.1463,-0.1466,0,-0.1482,0,-0.151,-0.1561,-0.1561,0,0,0,-0.1279,-0.127,-0.1301,-0.1209,-0.1261,-0.1407,-0.1346,-0.1459,-0.147,-0.1479,-0.1484,-0.149,-0.1512,-0.1562,-0.1562,-0.1702,-0.1702,0,0,-0.1271,-0.1246,-0.1294,-0.1308,-0.1289,-0.1341,-0.1351,-0.1466,-0.1477,-0.1485,-0.1493,-0.1515,-0.1562,-0.1563,-0.1701,-0.1702,0,0,0,-0.1233,-0.124,-0.1271,-0.1301,-0.1326,-0.1345,-0.1356,-0.1473,-0.148,-0.1495,-0.1516,-0.1563,-0.1564,-0.17,-0.1701,-0.1697,0,0,0,-0.1229,-0.1216,-0.1267,-0.1255,-0.1324,-0.1408,-0.1359,-0.1473,-0.1487,-0.1516,-0.1563,-0.1565,-0.1699,-0.1701,-0.1695,-0.1672,0,0,0,-0.1202,-0.1214,-0.1226,-0.1253,-0.1307,-0.1407,-0.1424,-0.1477,-0.1498,-0.1562,-0.1566,-0.1698,-0.17,-0.1693,-0.1671,-0.1636,0,0,0,-0.1179,-0.1204,-0.1226,-0.126,-0.1306,-0.1397,-0.1424,-0.1512,-0.157,-0.1564,-0.1699,-0.1701,-0.1693,-0.167,-0.1636,-0.1379,0,0,0,-0.1196,-0.1205,-0.1225,-0.1248,-0.1316,-0.1378,-0.1481,-0.157,-0.1598,-0.1659,-0.1663,-0.1695,-0.1671,-0.1636,-0.1492,0,0,0,0,-0.1222,-0.1238,-0.126,-0.1307,-0.137,-0.1459,-0.1555,-0.1593,-0.1679,-0.1636,-0.1735,-0.172,-0.1697,-0.155,-0.171,-0.171,-0.171,-0.1709,-0.1709,-0.1199,-0.1242,-0.1285,-0.1355,-0.142,-0.1538,-0.1601,-0.1678,-0.1706,-0.175,-0.1746,-0.1756,-0.1607,-0.1791,-0.1791,-0.1791,-0.1791,-0.1791,-0.1791,-0.1197,-0.1218,-0.1299,-0.1366,-0.1463,-0.1562,-0.1667,-0.1707,-0.1756,-0.1784,-0.1762,-0.1595,-0.1792,-0.1792,-0.1792,-0.1792,-0.1792,-0.1792,-0.1791,-0.1151,-0.1175,-0.1235,-0.1336,-0.1451,-0.1572,-0.16,-0.1694,-0.1737,-0.1739,-0.156,-0.1741,-0.1703,-0.1725,-0.1725,-0.1724,-0.1724,-0.1724,-0.1724,-0.1073,-0.1138,-0.1187,-0.1307,-0.1362,-0.1451,-0.1558,-0.1541,-0.161,-0.1517,-0.1727,-0.1732,-0.1735,-0.17,-0.172,-0.1721,-0.1722,-0.1722,-0.1722,-0.1016,-0.1051,-0.1093,-0.1144,-0.1255,-0.1288,-0.1405,-0.1325,-0.1288,-0.1212,-0.1389,-0.1406,-0.1369,-0.138,-0.1332,-0.1243,-0.1239,-0.1236,0,-0.0951,-0.0983,-0.1012,-0.1047,-0.1072,-0.1187,-0.1051,-0.1059,-0.111,-0.1102,-0.1313,-0.152,-0.1529,-0.1498,-0.1502,-0.1449,0,0,0,-0.0897,-0.0913,-0.0907,-0.0975,-0.0992,-0.0967,-0.102,-0.0954,-0.1134,-0.096,-0.1153,-0.1175,-0.1445,-0.171,-0.1695,-0.1698,-0.1641,0,0]},{"header":{"parameterUnit":"m.s-1","parameterCategory":2,"la1":30.2992,"la2":30.254,"lo1":-89.0895,"lo2":-89.0443,"dy":0.0025,"dx":0.0025,"nx":19,"ny":19,"refTime":"2026-03-23T03:00:00:Z","depth":"4","parameterNumber":3,"parameterNumberName":"V-component_of_CURRENTS"},"data":[0,0,0,-0.019,-0.019,-0.0169,-0.0169,-0.0082,-0.0081,0,0,0,0,0,0,0,0,0,0,0,-0.0197,-0.0197,-0.019,-0.019,-0.0169,-0.0169,-0.0082,-0.0081,0,0,0,0,0,0,0,0,0,0,0,-0.0197,-0.0197,-0.0197,-0.019,-0.0169,-0.0169,-0.0082,-0.0111,0,0,0,0,0,0,0,0,0,0,-0.0138,-0.0156,-0.0197,-0.0197,-0.019,-0.017,-0.0169,-0.0113,-0.0109,-0.0075,0,-0.0078,0,-0.0078,-0.0074,-0.0074,0,0,0,-0.0184,-0.0159,-0.0155,-0.0197,-0.019,-0.017,-0.0177,-0.0111,-0.0107,-0.007,-0.0077,-0.0074,-0.0077,-0.0073,-0.0073,0.0095,0.0096,0,0,-0.0185,-0.0189,-0.0158,-0.0152,-0.019,-0.0178,-0.0176,-0.0109,-0.0105,-0.0077,-0.0072,-0.0075,-0.0073,-0.0072,0.0094,0.0096,0,0,0,-0.0192,-0.019,-0.0188,-0.0155,-0.0157,-0.0177,-0.0176,-0.0108,-0.0108,-0.0071,-0.0074,-0.0072,-0.0071,0.0093,0.0095,0.0012,0,0,0,-0.0193,-0.0194,-0.0188,-0.019,-0.0159,-0.0141,-0.0176,-0.0113,-0.0105,-0.0074,-0.0072,-0.007,0.0092,0.0094,0.0012,-0.0048,0,0,0,-0.0197,-0.0195,-0.0195,-0.019,-0.0185,-0.0142,-0.0138,-0.0111,-0.0107,-0.0074,-0.007,0.0091,0.0094,0.0011,-0.0047,-0.0015,0,0,0,-0.0198,-0.0213,-0.0195,-0.0218,-0.0185,-0.0175,-0.0139,-0.0124,-0.01,-0.0072,0.0092,0.0095,0.0011,-0.0046,-0.0015,0.0036,0,0,0,-0.0221,-0.0216,-0.0233,-0.0217,-0.0231,-0.0177,-0.0155,-0.011,-0.0037,0.0072,0.0076,0.0012,-0.0047,-0.0015,0.0192,0,0,0,0,-0.0244,-0.0251,-0.0253,-0.0259,-0.0242,-0.0205,-0.0147,-0.0086,0.0016,-0.0011,0.0089,0.0056,0.0077,0.0113,0.0107,0.0107,0.0107,0.0106,0.0106,-0.0261,-0.0272,-0.0294,-0.0291,-0.0277,-0.021,-0.0161,-0.0047,0.0009,0.0073,0.0045,0.0088,0.013,0.0127,0.0127,0.0126,0.0126,0.0126,0.0126,-0.0299,-0.0313,-0.032,-0.0346,-0.0308,-0.0275,-0.0152,-0.0094,0.0025,0.0069,0.0095,0.0095,0.0119,0.0121,0.0122,0.0122,0.0123,0.0123,0.0124,-0.0303,-0.0311,-0.0338,-0.0375,-0.0368,-0.0316,-0.026,-0.0179,-0.0046,-0.0031,0.0072,0.0059,0.0001,0.0002,0.0002,0.0002,0.0002,0.0002,0.0002,-0.0293,-0.0319,-0.0361,-0.04,-0.042,-0.0415,-0.0326,-0.0235,-0.0123,-0.0007,-0.0044,0.0048,0.0052,-0.0001,0.0,0.0001,0.0001,0.0001,0.0001,-0.0294,-0.0315,-0.0375,-0.0413,-0.0465,-0.0458,-0.04,-0.0196,-0.0093,0.0032,0.0042,0.0041,0.008,0.0083,0.0032,0.0043,0.0043,0.0044,0,-0.0293,-0.0308,-0.0387,-0.0443,-0.0474,-0.0473,-0.0313,-0.0196,-0.0047,-0.0053,-0.0103,-0.0104,-0.01,-0.0068,-0.0063,-0.0129,0,0,0,-0.0304,-0.0325,-0.0374,-0.0436,-0.0475,-0.0345,-0.027,-0.018,-0.0094,0.0075,0.006,0.0056,0.0016,-0.0005,0.0052,0.0057,-0.0024,0,0]}]]